Stations météo

Publicité
Montauban, France (7540): Température de l'air & dewpoint: 18.09.2020 10:00:00 - 24.09.2020 10:00:00 (CEST)Montauban, France (7540): Température de l'air 5cm: 18.09.2020 10:00:00 - 24.09.2020 10:00:00 (CEST)Montauban, France (7540): Température de l'air -20cm & Température de l'air -100cm: 18.09.2020 10:00:00 - 24.09.2020 10:00:00 (CEST)Montauban, France (7540): Vitesse du vent & gusts: 18.09.2020 10:00:00 - 24.09.2020 10:00:00 (CEST)Montauban, France (7540): Direction du vent: 18.09.2020 10:00:00 - 24.09.2020 10:00:00 (CEST)Montauban, France (7540): reduced air pressure: 18.09.2020 10:00:00 - 24.09.2020 10:00:00 (CEST)Montauban, France (7540): visibility: 18.09.2020 10:00:00 - 24.09.2020 10:00:00 (CEST)Montauban, France (7540): Ensoleillement: 18.09.2020 10:00:00 - 24.09.2020 10:00:00 (CEST)Montauban, France (7540): Quantités de précipitations: 18.09.2020 10:00:00 - 24.09.2020 10:00:00 (CEST)
Date & Time tt [°C] td [°C] tt 5cm [°C] tt -20cm [°C] tt -100cm [°C] ff [km/h] ff [knt] fx [km/h] fx [knt] dd ppp [hPa] vv [km] sd [min] rr [mm]
24.09.2020 10:00:00 17,2 15,5 16,8 21,7 21,8 4 2 9 5 SSW 1011,9 20 0 0,0
24.09.2020 09:00:00 16,5 15,9 15,9 21,8 21,8 4 2 8 5 SW 1012,1 20 0 0,0
24.09.2020 08:00:00 16,2 15,6 15,9 21,9 21,8 2 1 14 8 SSW 1011,8 13 0 2,0
24.09.2020 07:00:00 16,4 15,6 15,9 21,9 21,8 0 0 9 5 N 1011,8 20 0 0,0
24.09.2020 06:00:00 16,5 15,5 16,0 22,1 21,8 4 2 7 4 SSE 1011,8 20 0 0,8
24.09.2020 05:00:00 16,3 15,2 15,7 22,1 21,8 3 2 8 4 SE 1012,1 20 0 0,2
24.09.2020 04:00:00 16,5 14,7 15,4 22,2 21,8 5 3 26 14 SSE 1012,4 7 0 2,0
24.09.2020 03:00:00 18,0 16,7 17,4 22,3 21,8 10 5 16 9 WSW 1013,0 13 0 1,2
24.09.2020 02:00:00 18,5 16,3 17,9 22,4 21,9 6 4 14 8 WSW 1012,8 20 0 0,0
24.09.2020 01:00:00 18,8 15,8 17,1 22,4 21,8 8 5 13 7 SSW 1012,4 20 0 0,0
24.09.2020 00:00:00 19,5 15,2 18,1 22,4 21,8 7 4 16 9 W 1012,2 20 0 0,0
23.09.2020 23:00:00 20,1 15,1 18,4 22,5 21,9 6 4 17 9 W 1012,0 20 0 0,0
23.09.2020 22:00:00 21,1 15,2 19,6 22,5 21,9 10 5 18 10 WNW 1011,5 20 0 0,0
23.09.2020 21:00:00 21,8 15,2 20,7 22,4 21,8 8 4 27 14 WNW 1010,7 20 0 0,0
23.09.2020 20:00:00 22,7 14,8 19,9 22,4 21,9 14 8 25 13 WNW 1009,5 19 0 0,0
23.09.2020 19:00:00 24,1 14,8 23,6 22,2 21,9 8 4 19 11 WNW 1008,9 18 21 0,0
23.09.2020 18:00:00 25,2 14,0 24,1 22,1 21,9 9 5 24 13 WSW 1008,4 20 6 0,0
23.09.2020 17:00:00 26,7 12,7 28,1 21,8 21,9 14 8 22 12 WNW 1008,3 20 17 0,0
23.09.2020 16:00:00 26,9 13,6 29,6 21,7 21,9 8 4 21 11 SW 1008,5 20 34 0,0
23.09.2020 15:00:00 24,8 15,7 27,4 21,5 21,9 7 4 18 10 S 1009,2 20 0 0,0
23.09.2020 14:00:00 24,1 15,6 28,6 21,4 21,9 9 5 22 12 S 1009,7 20 40 0,0
23.09.2020 13:00:00 23,1 16,4 29,0 21,4 21,9 10 5 27 15 S 1010,3 20 60 0,0
23.09.2020 12:00:00 21,1 16,7 22,4 21,4 21,9 11 6 24 13 S 1010,9 20 56 0,0
23.09.2020 11:00:00 19,2 17,7 17,9 21,4 21,9 14 7 24 13 SSE 1011,0 20 23 0,0
23.09.2020 10:00:00 16,7 16,5 15,7 21,5 21,9 8 4 16 9 SE 1011,6 13 0 0,0
23.09.2020 09:00:00 15,4 15,1 15,0 21,6 21,9 5 3 10 5 E 1011,5 1,5 0 0,0
23.09.2020 08:00:00 14,8 14,5 14,8 21,7 21,9 5 3 10 5 E 1011,9 1,8 0 0,0
23.09.2020 07:00:00 14,6 14,3 14,6 21,8 21,9 3 1 6 3 E 1011,9 0,3 0 0,0
23.09.2020 06:00:00 14,6 14,3 14,1 21,9 21,9 0 0 5 3 N 1011,8 0,2 0 0,0
23.09.2020 05:00:00 14,2 13,9 13,5 22,1 21,9 3 1 6 3 E 1012,0 0,3 0 0,0
23.09.2020 04:00:00 14,1 13,6 13,4 22,2 22,0 3 1 4 2 SE 1012,5 0,5 0 0,0
23.09.2020 03:00:00 14,6 14,1 12,6 22,3 22,0 0 0 4 2 N 1012,9 0,3 0 0,0
23.09.2020 02:00:00 15,2 14,6 12,9 22,4 22,0 0 0 4 2 N 1013,2 14 0 0,0
23.09.2020 01:00:00 16,4 15,8 13,9 22,4 22,0 0 0 3 2 N 1013,3 20 0 0,0
23.09.2020 00:00:00 16,8 15,8 14,4 22,5 22,0 0 0 4 2 N 1013,5 20 0 0,0
22.09.2020 23:00:00 17,6 16,6 16,8 22,5 22,0 3 2 5 3 SSE 1013,6 20 0 0,0
22.09.2020 22:00:00 17,7 16,6 16,6 22,5 22,0 3 2 7 4 ESE 1013,2 20 0 0,0
22.09.2020 21:00:00 17,8 16,3 16,8 22,5 22,0 2 1 5 3 S 1013,0 20 0 0,0
22.09.2020 20:00:00 19,2 15,9 18,5 22,5 22,0 4 2 11 6 ENE 1012,7 20 0 0,0
22.09.2020 19:00:00 20,7 16,1 21,6 22,4 22,0 8 4 14 7 NNW 1012,6 20 33 0,0
22.09.2020 18:00:00 20,5 16,7 21,4 22,3 22,0 9 5 16 8 NNW 1012,3 20 7 0,0
22.09.2020 17:00:00 20,2 16,6 18,8 22,2 22,0 7 4 17 9 W 1012,8 20 20 0,8
22.09.2020 16:00:00 20,0 17,2 19,2 22,1 22,0 5 3 11 6 W 1013,3 19 8 0,5
22.09.2020 15:00:00 19,0 17,3 17,8 22,0 22,0 5 3 19 10 W 1014,0 20 12 7,4
22.09.2020 14:00:00 18,7 16,3 18,6 22,0 22,0 8 5 20 11 NNW 1014,1 16 22 1,2
22.09.2020 13:00:00 20,0 16,8 18,6 21,9 22,0 6 3 10 6 SW 1014,5 20 23 0,0
22.09.2020 12:00:00 18,0 17,0 17,8 22,0 22,0 3 2 6 4 W 1015,0 17 0 3,7
22.09.2020 11:00:00 17,4 16,4 17,5 22,1 22,0 3 2 18 10 N 1015,2 8 0 2,4
22.09.2020 10:00:00 18,1 17,5 17,7 22,1 22,1 10 6 19 10 W 1014,8 18 2 0,4
22.09.2020 09:00:00 17,6 17,1 17,3 22,2 22,1 9 5 16 9 W 1014,8 16 0 2,8
22.09.2020 08:00:00 17,5 16,9 17,3 22,3 22,1 9 5 15 8 W 1014,8 8 0 1,0
22.09.2020 07:00:00 17,7 17,1 17,4 22,3 22,1 6 3 11 6 WSW 1014,7 18 0 0,2
22.09.2020 06:00:00 17,7 16,9 17,2 22,4 22,1 3 2 12 6 SW 1014,9 20 0 0,0
22.09.2020 05:00:00 17,8 16,8 17,7 22,5 22,1 7 4 13 7 WSW 1015,2 20 0 0,0
22.09.2020 04:00:00 18,1 16,9 18,0 22,5 22,1 5 3 11 6 WSW 1015,3 20 0 0,0
22.09.2020 03:00:00 18,2 16,9 18,1 22,6 22,1 7 4 14 8 WSW 1015,8 20 0 0,0
22.09.2020 02:00:00 18,3 16,8 18,0 22,7 22,1 5 3 12 6 WSW 1016,2 20 0 0,0
22.09.2020 01:00:00 18,3 16,8 17,9 22,7 22,1 6 3 13 7 WSW 1016,4 20 0 0,0
22.09.2020 00:00:00 18,5 17,0 18,2 22,8 22,1 9 5 14 8 W 1016,6 20 0 0,0
21.09.2020 23:00:00 18,5 17,2 18,2 22,9 22,1 6 4 13 7 W 1016,7 20 0 0,0
21.09.2020 22:00:00 18,8 17,1 17,2 22,9 22,1 8 4 13 7 W 1016,7 20 0 0,0
21.09.2020 21:00:00 18,3 16,5 16,8 23,0 22,1 4 2 11 6 WNW 1016,2 20 0 0,0
21.09.2020 20:00:00 19,4 17,4 18,6 22,9 22,1 3 2 18 10 NW 1016,1 20 0 0,0
21.09.2020 19:00:00 19,8 17,2 18,7 22,9 22,1 11 6 19 10 W 1015,9 20 0 0,2
21.09.2020 18:00:00 19,5 17,1 18,3 22,8 22,1 9 5 22 12 WNW 1015,7 17 0 7,0
21.09.2020 17:00:00 21,7 16,4 21,8 22,6 22,1 0 0 16 8 N 1015,6 20 0 0,0
21.09.2020 16:00:00 21,2 15,9 22,6 22,6 22,1 12 6 18 10 NW 1015,6 20 21 0,0
21.09.2020 15:00:00 22,6 16,8 23,9 22,5 22,1 7 4 16 9 N 1016,0 20 32 0,0
21.09.2020 14:00:00 21,0 18,0 19,7 22,4 22,1 9 5 18 10 NW 1016,6 20 5 2,0
21.09.2020 13:00:00 21,6 16,3 24,2 22,4 22,1 9 5 19 10 NNW 1016,9 20 3 0,0
21.09.2020 12:00:00 21,3 16,3 23,7 22,5 22,1 11 6 20 11 W 1017,2 20 7 0,0
21.09.2020 11:00:00 20,7 16,9 19,9 22,5 22,1 8 5 16 9 W 1017,3 19 15 0,0
21.09.2020 10:00:00 18,9 16,9 19,3 22,6 22,1 8 5 13 7 WSW 1017,1 20 0 0,0
21.09.2020 09:00:00 18,3 16,5 18,3 22,6 22,1 7 4 12 6 SSW 1017,0 20 4 0,0
21.09.2020 08:00:00 18,0 16,5 17,4 22,7 22,1 5 3 11 6 SSW 1016,7 20 0 0,0
21.09.2020 07:00:00 17,9 16,4 17,5 22,8 22,1 4 2 10 6 WSW 1016,5 20 0 0,0
21.09.2020 06:00:00 17,8 16,3 17,2 22,9 22,2 6 3 15 8 WSW 1016,5 20 0 0,0
21.09.2020 05:00:00 18,2 16,4 17,9 23,0 22,1 5 3 11 6 WSW 1016,4 20 0 0,0
21.09.2020 04:00:00 18,3 16,3 17,9 23,1 22,1 5 3 13 7 SW 1016,4 20 0 0,0
21.09.2020 03:00:00 18,6 16,0 18,1 23,1 22,1 6 3 15 8 WSW 1016,9 20 0 0,0
21.09.2020 02:00:00 18,9 15,9 18,4 23,2 22,2 9 5 18 10 W 1016,8 20 0 0,0
21.09.2020 01:00:00 18,9 15,8 18,0 23,3 22,1 9 5 16 9 W 1016,7 20 0 0,0
21.09.2020 00:00:00 19,8 15,6 19,1 23,4 22,1 8 5 16 9 W 1016,5 20 0 0,0
20.09.2020 23:00:00 20,0 15,6 19,4 23,4 22,2 6 3 14 7 WSW 1016,5 20 0 0,0
20.09.2020 22:00:00 20,2 15,6 19,3 23,4 22,2 8 5 16 9 WNW 1016,4 20 0 0,0
20.09.2020 21:00:00 20,5 16,5 18,1 23,4 22,1 6 3 11 6 W 1015,7 20 0 0,0
20.09.2020 20:00:00 21,7 15,8 20,2 23,4 22,2 4 2 19 10 NW 1014,7 20 30 0,0
20.09.2020 19:00:00 23,0 15,6 24,3 23,3 22,2 13 7 22 12 NW 1014,0 20 45 0,0
20.09.2020 18:00:00 22,9 16,7 24,4 23,3 22,2 10 5 16 8 NNW 1014,0 20 37 0,0
20.09.2020 17:00:00 22,7 17,2 21,6 23,2 22,2 5 3 11 6 W 1014,1 20 20 0,0
20.09.2020 16:00:00 19,8 17,0 18,8 23,1 22,1 8 5 30 16 NW 1014,7 16 3 1,6
20.09.2020 15:00:00 23,3 15,1 24,5 23,0 22,1 10 5 25 13 W 1014,4 20 10 0,0
20.09.2020 14:00:00 23,3 16,1 24,8 23,0 22,1 11 6 25 14 WNW 1014,9 20 21 0,0
20.09.2020 13:00:00 22,4 15,7 22,4 23,0 22,1 13 7 24 13 WSW 1015,4 20 2 0,0
20.09.2020 12:00:00 21,0 15,5 22,8 23,1 22,2 9 5 18 10 SW 1015,6 20 3 0,0
20.09.2020 11:00:00 20,2 15,6 20,5 23,1 22,2 10 6 18 10 SSW 1015,7 20 0 0,0
20.09.2020 10:00:00 18,8 16,6 18,9 23,2 22,2 8 4 12 6 S 1015,5 20 0 0,0
20.09.2020 09:00:00 17,9 16,6 17,0 23,2 22,2 5 3 10 5 S 1015,4 20 0 0,0
20.09.2020 08:00:00 17,1 16,1 15,9 23,4 22,2 3 2 9 5 ESE 1015,0 20 0 0,0
20.09.2020 07:00:00 16,9 15,8 16,0 23,5 22,1 6 4 11 6 S 1014,9 20 0 0,0
20.09.2020 06:00:00 17,3 16,0 15,3 23,6 22,2 6 3 13 7 SSW 1015,0 20 0 0,0
20.09.2020 05:00:00 17,7 16,0 17,0 23,8 22,2 6 3 12 7 SW 1014,9 20 0 0,0
20.09.2020 04:00:00 18,0 16,2 17,3 23,8 22,2 6 3 9 5 WSW 1015,2 20 0 0,0
20.09.2020 03:00:00 18,2 16,0 17,6 23,9 22,2 7 4 12 7 WSW 1015,1 20 0 0,0
20.09.2020 02:00:00 18,3 16,3 17,1 24,0 22,2 0 0 9 5 N 1014,6 20 0 0,0
20.09.2020 01:00:00 18,5 15,9 17,0 24,1 22,2 6 3 39 21 WNW 1014,3 18 0 0,8
20.09.2020 00:00:00 21,1 15,0 18,5 24,1 22,2 22 12 34 19 WNW 1013,7 20 0 0,0
19.09.2020 23:00:00 20,5 15,9 18,1 24,2 22,2 21 11 39 21 S 1013,2 20 0 1,0
19.09.2020 22:00:00 23,0 14,6 21,5 24,1 22,1 5 3 19 10 S 1012,3 20 0 0,0
19.09.2020 21:00:00 24,4 13,9 22,0 24,1 22,2 4 2 9 5 NNW 1011,0 20 0 0,0
19.09.2020 20:00:00 25,3 14,7 23,9 24,0 22,2 6 3 18 10 N 1010,2 20 29 0,0
19.09.2020 19:00:00 27,0 14,7 27,4 23,9 22,2 9 5 22 12 NW 1009,6 20 24 0,0
19.09.2020 18:00:00 27,2 13,5 28,1 23,8 22,2 12 6 18 10 WNW 1009,4 20 0 0,0
19.09.2020 17:00:00 28,0 11,5 30,0 23,6 22,1 8 5 15 8 WSW 1009,5 20 3 0,0
19.09.2020 16:00:00 28,7 13,4 32,2 23,5 22,2 6 4 27 15 NW 1009,9 20 33 0,0
19.09.2020 15:00:00 28,6 13,3 32,1 23,4 22,2 8 5 19 11 SSE 1010,5 20 50 0,0
19.09.2020 14:00:00 26,6 14,7 27,9 23,4 22,2 11 6 21 12 ESE 1011,3 20 29 0,0
19.09.2020 13:00:00 23,7 18,3 21,7 23,4 22,2 11 6 21 12 ESE 1011,7 20 15 0,0
19.09.2020 12:00:00 21,4 17,6 20,1 23,5 22,2 2 1 19 11 N 1012,4 14 0 0,4
19.09.2020 11:00:00 21,4 18,2 20,9 23,6 22,2 9 5 16 9 S 1012,9 18 0 0,0
19.09.2020 10:00:00 20,8 17,6 21,2 23,6 22,1 6 4 13 7 WSW 1013,0 18 4 0,0
19.09.2020 09:00:00 19,5 17,1 17,5 23,7 22,1 0 0 8 5 N 1011,9 18 25 0,0
19.09.2020 08:00:00 18,2 16,7 16,2 23,8 22,1 3 1 7 4 ENE 1012,0 12 0 0,0
19.09.2020 07:00:00 18,8 16,8 17,5 23,9 22,1 0 0 11 6 N 1011,9 12 0 0,0
19.09.2020 06:00:00 19,7 16,9 17,6 24,0 22,1 6 3 14 8 ENE 1011,7 18 0 0,0
19.09.2020 05:00:00 21,3 16,9 19,6 24,1 22,2 3 2 18 10 SE 1011,9 20 0 0,0
19.09.2020 04:00:00 20,9 16,1 19,6 24,1 22,2 5 3 16 8 ESE 1012,5 20 0 0,0
19.09.2020 03:00:00 20,8 16,0 18,5 24,2 22,1 8 4 15 8 E 1012,7 20 0 0,0
19.09.2020 02:00:00 22,2 15,5 20,6 24,2 22,1 8 4 16 8 SW 1012,7 20 0 0,0
19.09.2020 01:00:00 22,5 14,9 19,8 24,3 22,1 6 4 11 6 S 1012,9 20 0 0,0
19.09.2020 00:00:00 22,1 15,4 19,1 24,4 22,1 4 2 9 5 S 1012,9 20 0 0,0
18.09.2020 23:00:00 23,9 13,7 21,8 24,4 22,1 6 4 23 12 SSE 1012,8 20 0 0,0
18.09.2020 22:00:00 24,9 13,8 23,7 24,4 22,1 14 7 26 14 SE 1012,1 20 0 0,0
18.09.2020 21:00:00 25,3 12,8 24,1 24,4 22,1 14 8 27 15 ESE 1011,4 20 0 0,0
18.09.2020 20:00:00 26,0 12,4 25,0 24,4 22,1 16 9 45 24 ESE 1011,4 20 0 0,0
18.09.2020 19:00:00 26,6 14,4 26,3 24,3 22,1 15 8 39 21 ESE 1011,8 20 0 0,0
18.09.2020 18:00:00 27,5 15,2 28,1 24,2 22,1 16 9 31 17 SE 1012,1 20 0 0,0
18.09.2020 17:00:00 27,5 15,8 26,0 24,1 22,1 16 8 33 18 SSE 1012,1 20 0 0,0
18.09.2020 16:00:00 29,6 14,2 29,7 24,0 22,1 22 12 35 19 S 1012,2 20 0 0,0
18.09.2020 15:00:00 30,7 14,3 33,4 23,8 22,1 19 11 32 17 S 1012,1 20 0 0,0
18.09.2020 14:00:00 31,0 13,7 33,3 23,7 22,1 15 8 32 18 SSW 1012,0 20 16 0,0
18.09.2020 13:00:00 29,9 14,4 33,4 23,7 22,1 18 10 29 16 SE 1012,0 20 21 0,0
18.09.2020 12:00:00 28,8 16,4 30,1 23,8 22,1 8 4 22 12 SSW 1012,7 20 26 0,0
18.09.2020 11:00:00 27,0 15,7 29,7 23,8 22,1 17 9 34 18 SSE 1012,7 20 27 0,0
18.09.2020 10:00:00 23,5 15,0 19,6 24,0 22,1 2 1 9 5 WSW 1012,6 20 45 0,0

tt = Température de l'air
td = dewpoint
tt 5cm = Température de l'air 5cm
tt -20cm = Température de l'air -20cm
tt -100cm = Température de l'air -100cm
ff = Vitesse du vent
fx = gusts
dd = Direction du vent
ppp = reduced air pressure
vv = visibility
sd = Ensoleillement
rr = Quantités de précipitations

stations d'obs. à proximité